Tracking 35036 objects as of 15-Aug-2026
HD Live streaming from Space Station
objects crossing your sky now

STARLINK-38158


10-day predictions
STARLINK-38158 is classified as:


NORAD ID: 100105
Int'l Code: 2026-166E
Launch date: July 21, 2026
Source: United States (US)
Launch site: AIR FORCE WESTERN TEST RANGE (AFWTR)
Your satellite tracking list
Your tracking list is empty




NASA's NSSDC Master Catalog

Two Line Element Set (TLE):
1 A0105U 26166E   26227.53457665  .00020738  00000-0  13955-3 0  9993
2 A0105  97.2844 244.1397 0001206  98.0964 262.0438 15.75192428  3942
Source of the keplerian elements: AFSPC